Spokane, WA

8:25 PM PST on December 03, 2016 (GMT -0800)
Felts

Weather History for KSFF - April, 2014

Change the Weather History Date:

Sunday, April 6, 2014

  Actual Average Record
Temperature  
Mean Temperature 52 °F 45 °F  
Max Temperature 62 °F 55 °F 69 °F (2004)
Min Temperature 41 °F 35 °F 24 °F (1997)
Degree Days  
Heating Degree Days 13 20  
Month to date heating degree days 112 120  
Since 1 July heating degree days 5524 5441  
Cooling Degree Days 0 0  
Month to date cooling degree days 0 0  
Year to date cooling degree days 0 0  
Growing Degree Days 2 (Base 50)    
Moisture  
Dew Point 32 °F    
Average Humidity 53    
Maximum Humidity 83    
Minimum Humidity 22    
Precipitation  
Precipitation 0.00 in 0.04 in 0.32 in (2015)
Month to date precipitation 0.09 0.30  
Year to date precipitation 5.54 5.20  
Sea Level Pressure  
Sea Level Pressure 30.07 in    
Wind  
Wind Speed 6 mph (WSW)    
Max Wind Speed 21 mph    
Max Gust Speed 26 mph    
Visibility 10 miles    
Events      
T = Trace of Precipitation, MM = Missing Value Source: NWS Daily Summary

Daily Weather History Graph

Daily Weather History Graph

Search for Another Location

Airport or City:

Trip Planner

Search our weather history database for the weather conditions in past years. The results will help you decide how hot, cold, wet, or windy it might be!

Date:

Astronomy

Apr. 06, 2014 Rise Set
Actual Time 6:17 AM PDT 7:26 PM PDT
Civil Twilight 5:46 AM PDT 7:58 PM PDT
Nautical Twilight 5:08 AM PDT 8:36 PM PDT
Astronomical Twilight 4:27 AM PDT 9:16 PM PDT
Moon 11:09 AM PDT (4/6) 1:39 AM PDT (4/6)
Length of Visible Light 14h 12m
Length of Day
13h 08m
Waxing Crescent, 45% of the Moon is Illuminated
Apr 6
Waxing Crescent
Apr 7
First Quarter
Apr 15
Full
Apr 22
Last Quarter
Apr 28
New

Hourly Weather History & Observations

Time (PDT) Temp. Windchill Dew Point Humidity Pressure Visibility Wind Dir Wind Speed Gust Speed Precip Events Conditions
12:53 AM 46.9 °F - 41.0 °F 80% 29.96 in 10.0 mi Variable 6.9 mph - 0.01 in   Overcast
1:26 AM 46.9 °F - 39.9 °F 77% 29.96 in 10.0 mi WSW 8.1 mph - N/A   Overcast
1:53 AM 46.9 °F - 39.9 °F 77% 29.97 in 10.0 mi WSW 8.1 mph - N/A   Overcast
2:53 AM 46.0 °F 41.0 °F 39.9 °F 79% 29.97 in 10.0 mi SW 10.4 mph - N/A   Overcast
3:53 AM 45.0 °F 41.2 °F 39.0 °F 80% 29.98 in 10.0 mi Variable 6.9 mph - N/A   Mostly Cloudy
4:12 AM 45.0 °F 41.8 °F 37.9 °F 76% 29.99 in 10.0 mi WSW 5.8 mph - N/A   Partly Cloudy
4:53 AM 42.1 °F 40.2 °F 37.0 °F 82% 30.00 in 10.0 mi Variable 3.5 mph - N/A   Clear
5:53 AM 43.0 °F 37.2 °F 37.0 °F 80% 30.02 in 10.0 mi SW 10.4 mph - N/A   Mostly Cloudy
6:53 AM 42.1 °F 40.2 °F 35.1 °F 76% 30.02 in 10.0 mi West 3.5 mph - N/A   Scattered Clouds
7:53 AM 44.1 °F 40.8 °F 36.0 °F 73% 30.05 in 10.0 mi West 5.8 mph - N/A   Clear
8:53 AM 46.9 °F - 35.1 °F 63% 30.08 in 10.0 mi WSW 11.5 mph - N/A   Partly Cloudy
9:53 AM 48.9 °F - 35.1 °F 59% 30.09 in 10.0 mi West 8.1 mph 17.3 mph N/A   Clear
10:53 AM 53.1 °F - 36.0 °F 52% 30.10 in 10.0 mi WSW 5.8 mph - N/A   Clear
11:53 AM 54.0 °F - 32.0 °F 43% 30.11 in 10.0 mi Variable 3.5 mph - N/A   Scattered Clouds
12:53 PM 57.0 °F - 26.1 °F 30% 30.11 in 10.0 mi West 10.4 mph 20.7 mph N/A   Scattered Clouds
1:53 PM 60.1 °F - 26.1 °F 27% 30.10 in 10.0 mi WSW 10.4 mph 18.4 mph N/A   Partly Cloudy
2:53 PM 59.0 °F - 21.9 °F 24% 30.10 in 10.0 mi WNW 10.4 mph 21.9 mph N/A   Scattered Clouds
3:53 PM 61.0 °F - 24.1 °F 24% 30.10 in 10.0 mi WSW 8.1 mph 20.7 mph N/A   Clear
4:53 PM 61.0 °F - 23.0 °F 23% 30.11 in 10.0 mi West 11.5 mph 24.2 mph N/A   Clear
5:53 PM 61.0 °F - 21.9 °F 22% 30.12 in 10.0 mi West 9.2 mph 18.4 mph N/A   Clear
6:53 PM 59.0 °F - 23.0 °F 25% 30.13 in 10.0 mi West 8.1 mph - N/A   Clear
7:53 PM 54.0 °F - 24.1 °F 31% 30.14 in 10.0 mi Calm Calm - N/A   Clear
8:53 PM 48.0 °F - 28.9 °F 48% 30.17 in 10.0 mi Calm Calm - N/A   Clear
9:53 PM 44.1 °F - 30.0 °F 58% 30.19 in 10.0 mi Calm Calm - N/A   Scattered Clouds
10:53 PM 44.1 °F - 28.0 °F 53% 30.19 in 10.0 mi Calm Calm - N/A   Clear
11:53 PM 46.0 °F 44.8 °F 28.0 °F 50% 30.19 in 10.0 mi West 3.5 mph - N/A   Partly Cloudy